STARLINK-1984 (47581 NORAD) Tracking and Keplerian Element Data

This shows tracking and keplerian element data for the satellite.

Feedback or suggestion? Click here.




ElementValue
Catalog47581
NameSTARLINK-1984
Epoch Orbit182
Epoch Day55.91668981
Epoch Year2021
RAAN22.4889
Inclination53.0489
Eccentricity0.0001212
Argument of Perigee71.8091
Mean Anonmoly85.943
Mean Motion15.62748364
Decay Rate-2.96E-06
L11 47581U 21009AK 21055.91668981 -.00000296 00000-0 25950-5 0 9992
L22 47581 53.0489 22.4889 0001212 71.8091 85.9430 15.62748364 1827

Live tracking and technical data element details for STARLINK-1984 (NORAD 47581). STARLINK-1984 can be tracked NOW for your location showing map with azimuth and elevation plus other details from your city location.

Track the satellite on the map from your city or location and see movement details for azimuth, elevation, latitude, longitude, range, height, and movement on the map or in text.







IsCatalogInMostPopularTable: catalog: 47581, numindb: 1
Update: records affected: 1



GetName: 47581 STARLINK-1984

Hit Count: updated at: Thu, 25 Feb 2021 19:47:17 GMT